Location: Kampernieuwstad
(52.5135°N, 5.8742°E)
Time: 11:30:53
(UTC+00:00)

Cosmos 1076 Rocket - Pass Details

Date: 15 May 2026
Orbit: 580 x 604 km, 82.5° (Epoch: 9 June)

Event Time Altitude Azimuth Distance (km) Brightness Sun altitude
Rises 20:51:00 0° 353° (N) 2,843 8.0 -10.3°
Reaches altitude 10° 20:53:20 10° 1° (N) 1,932 6.9 -10.5°
Maximum altitude 20:57:23 41° 72° (ENE) 865 4.1 -10.9°
Enters shadow 21:00:24 16° 138° (SE) 1,547 4.9 -11.2°
